TimeEDT,TemperatureF,Dew PointF,Humidity,Sea Level PressureIn,VisibilityMPH,Wind Direction,Wind SpeedMPH,Gust SpeedMPH,PrecipitationIn,Events,Conditions,WindDirDegrees,DateUTC
12:15 AM,64.4,64.4,100,29.97,10.0,Calm,Calm,-,N/A,,Scattered Clouds,0,2012-10-07 04:15:00
12:55 AM,64.4,62.6,94,29.97,10.0,Calm,Calm,-,N/A,,Clear,0,2012-10-07 04:55:00
1:15 AM,64.4,62.6,94,29.98,10.0,Calm,Calm,-,N/A,,Scattered Clouds,0,2012-10-07 05:15:00
1:35 AM,64.4,62.6,94,29.98,10.0,Calm,Calm,-,N/A,,Scattered Clouds,0,2012-10-07 05:35:00
1:55 AM,64.4,60.8,88,29.99,10.0,Calm,Calm,-,N/A,,Scattered Clouds,0,2012-10-07 05:55:00
2:15 AM,64.4,59.0,83,30.00,10.0,NW,4.6,-,N/A,,Scattered Clouds,320,2012-10-07 06:15:00
2:35 AM,64.4,57.2,77,29.99,10.0,North,4.6,-,N/A,,Mostly Cloudy,360,2012-10-07 06:35:00
2:55 AM,64.4,55.4,73,29.98,10.0,Calm,Calm,-,N/A,,Mostly Cloudy,0,2012-10-07 06:55:00
3:15 AM,62.6,55.4,77,29.97,10.0,NNW,3.5,-,N/A,,Scattered Clouds,340,2012-10-07 07:15:00
3:35 AM,62.6,55.4,77,29.98,10.0,North,4.6,-,N/A,,Light Drizzle,350,2012-10-07 07:35:00
3:55 AM,62.6,55.4,77,29.98,10.0,NNW,3.5,-,N/A,,Mostly Cloudy,340,2012-10-07 07:55:00
4:15 AM,62.6,53.6,72,29.97,10.0,NE,6.9,-,N/A,,Mostly Cloudy,40,2012-10-07 08:15:00
4:35 AM,62.6,50.0,63,29.98,10.0,North,5.8,-,N/A,,Scattered Clouds,10,2012-10-07 08:35:00
4:55 AM,62.6,48.2,59,29.98,10.0,NNE,6.9,-,N/A,,Scattered Clouds,30,2012-10-07 08:55:00
5:15 AM,62.6,48.2,59,29.99,10.0,NNE,6.9,-,N/A,,Scattered Clouds,30,2012-10-07 09:15:00
5:35 AM,60.8,46.4,59,29.99,10.0,NE,8.1,-,N/A,,Mostly Cloudy,40,2012-10-07 09:35:00
5:55 AM,60.8,46.4,59,29.99,10.0,North,4.6,-,N/A,,Mostly Cloudy,10,2012-10-07 09:55:00
6:15 AM,60.8,46.4,59,29.99,10.0,NNE,6.9,-,N/A,,Overcast,20,2012-10-07 10:15:00
6:35 AM,59.0,46.4,63,29.99,10.0,NE,10.4,-,N/A,,Mostly Cloudy,40,2012-10-07 10:35:00
6:55 AM,59.0,46.4,63,29.98,10.0,NE,10.4,-,N/A,,Scattered Clouds,40,2012-10-07 10:55:00
7:15 AM,59.0,46.4,63,29.99,10.0,NE,5.8,-,N/A,,Clear,40,2012-10-07 11:15:00
7:35 AM,57.2,46.4,67,29.98,10.0,ENE,8.1,-,N/A,,Clear,60,2012-10-07 11:35:00
7:55 AM,59.0,46.4,63,30.00,10.0,NNE,4.6,-,N/A,,Clear,20,2012-10-07 11:55:00
8:15 AM,59.0,46.4,63,30.01,10.0,NE,6.9,-,N/A,,Clear,40,2012-10-07 12:15:00
8:35 AM,59.0,46.4,63,30.03,10.0,Calm,Calm,-,N/A,,Mostly Cloudy,0,2012-10-07 12:35:00
8:55 AM,60.8,46.4,59,30.04,10.0,North,6.9,-,N/A,,Mostly Cloudy,360,2012-10-07 12:55:00
9:15 AM,59.0,48.2,67,30.09,10.0,NW,10.4,16.1,N/A,,Mostly Cloudy,320,2012-10-07 13:15:00
9:35 AM,59.0,48.2,67,30.10,10.0,NNW,6.9,-,N/A,,Overcast,330,2012-10-07 13:35:00
9:55 AM,53.6,50.0,88,30.05,7.0,NNE,9.2,-,N/A,Rain,Rain,20,2012-10-07 13:55:00
10:35 AM,55.4,51.8,88,30.05,10.0,NNE,11.5,16.1,N/A,,Mostly Cloudy,30,2012-10-07 14:35:00
10:55 AM,55.4,51.8,88,30.05,10.0,ENE,10.4,-,N/A,,Overcast,60,2012-10-07 14:55:00
11:15 AM,55.4,50.0,82,30.05,10.0,ENE,9.2,-,N/A,,Overcast,60,2012-10-07 15:15:00
11:35 AM,57.2,50.0,77,30.06,10.0,North,4.6,-,N/A,,Overcast,10,2012-10-07 15:35:00
11:55 AM,57.2,50.0,77,30.05,10.0,NNE,5.8,-,N/A,,Overcast,30,2012-10-07 15:55:00
12:15 PM,59.0,50.0,72,30.05,10.0,North,3.5,-,N/A,,Overcast,360,2012-10-07 16:15:00
12:35 PM,57.2,50.0,77,30.05,10.0,North,5.8,-,N/A,,Overcast,350,2012-10-07 16:35:00
12:55 PM,57.2,50.0,77,30.05,10.0,North,4.6,-,N/A,,Overcast,10,2012-10-07 16:55:00
1:15 PM,57.2,50.0,77,30.04,10.0,North,4.6,-,N/A,,Overcast,10,2012-10-07 17:15:00
1:35 PM,57.2,50.0,77,30.03,10.0,North,6.9,-,N/A,,Overcast,10,2012-10-07 17:35:00
1:55 PM,59.0,50.0,72,30.02,10.0,North,5.8,-,N/A,,Overcast,350,2012-10-07 17:55:00
2:15 PM,59.0,51.8,77,30.02,10.0,North,3.5,-,N/A,,Overcast,10,2012-10-07 18:15:00
2:35 PM,59.0,51.8,77,30.01,10.0,NNE,4.6,-,N/A,,Overcast,20,2012-10-07 18:35:00
2:55 PM,59.0,51.8,77,30.02,10.0,North,4.6,-,N/A,,Overcast,350,2012-10-07 18:55:00
3:35 PM,59.0,51.8,77,30.02,10.0,NE,4.6,-,N/A,,Overcast,50,2012-10-07 19:35:00
3:55 PM,59.0,51.8,77,30.02,10.0,Calm,Calm,-,N/A,,Overcast,0,2012-10-07 19:55:00
4:15 PM,59.0,51.8,77,30.01,10.0,North,3.5,-,N/A,,Overcast,360,2012-10-07 20:15:00
4:35 PM,59.0,51.8,77,30.02,10.0,Calm,Calm,-,N/A,,Overcast,0,2012-10-07 20:35:00
4:55 PM,59.0,51.8,77,30.03,10.0,NNW,4.6,-,N/A,,Overcast,330,2012-10-07 20:55:00
5:15 PM,59.0,51.8,77,30.04,10.0,NNW,3.5,-,N/A,,Overcast,340,2012-10-07 21:15:00
5:35 PM,59.0,51.8,77,30.04,10.0,NW,3.5,-,N/A,,Overcast,320,2012-10-07 21:35:00
5:55 PM,59.0,51.8,77,30.05,10.0,NNW,3.5,-,N/A,,Overcast,330,2012-10-07 21:55:00
6:15 PM,57.2,51.8,82,30.06,10.0,NNW,6.9,-,N/A,,Overcast,330,2012-10-07 22:15:00
6:35 PM,55.4,51.8,88,30.08,10.0,NNW,5.8,-,N/A,,Overcast,330,2012-10-07 22:35:00
6:55 PM,55.4,51.8,88,30.09,10.0,NNW,6.9,-,N/A,,Overcast,330,2012-10-07 22:55:00
7:15 PM,55.4,53.6,94,30.10,7.0,NNW,6.9,-,N/A,,Overcast,340,2012-10-07 23:15:00
7:35 PM,53.6,53.6,100,30.11,5.0,NNW,6.9,-,N/A,,Overcast,340,2012-10-07 23:35:00
7:55 PM,53.6,53.6,100,30.10,10.0,North,4.6,-,N/A,,Overcast,350,2012-10-07 23:55:00
8:15 PM,55.4,51.8,88,30.10,10.0,North,5.8,-,N/A,,Overcast,10,2012-10-08 00:15:00
8:35 PM,55.4,51.8,88,30.11,10.0,North,4.6,16.1,N/A,,Overcast,350,2012-10-08 00:35:00
8:55 PM,55.4,51.8,88,30.11,10.0,North,6.9,-,N/A,,Overcast,360,2012-10-08 00:55:00
9:15 PM,53.6,51.8,94,30.12,10.0,North,5.8,-,N/A,,Overcast,360,2012-10-08 01:15:00
9:35 PM,53.6,51.8,94,30.13,10.0,North,5.8,-,N/A,,Overcast,360,2012-10-08 01:35:00
9:55 PM,53.6,50.0,88,30.12,10.0,NNE,6.9,-,N/A,,Overcast,30,2012-10-08 01:55:00
10:15 PM,53.6,50.0,88,30.13,10.0,North,4.6,-,N/A,,Overcast,10,2012-10-08 02:15:00
10:35 PM,53.6,50.0,88,30.13,10.0,North,4.6,-,N/A,,Mostly Cloudy,10,2012-10-08 02:35:00
10:55 PM,53.6,50.0,88,30.13,10.0,North,4.6,-,N/A,,Scattered Clouds,10,2012-10-08 02:55:00
11:15 PM,53.6,50.0,88,30.14,10.0,North,3.5,-,N/A,,Clear,360,2012-10-08 03:15:00
11:35 PM,53.6,50.0,88,30.14,10.0,North,4.6,-,N/A,,Clear,360,2012-10-08 03:35:00
11:55 PM,53.6,50.0,88,30.14,10.0,Calm,Calm,-,N/A,,Mostly Cloudy,0,2012-10-08 03:55:00